Zurück zum Katalog

COSMOS 1275 DEB

AktivPO
NORAD 13470·DEBRIS·🇷🇺 Russia

Gestartet Jun 4, 1981 von Plesetsk Cosmodrome

Loading…

Nächste Überflüge (nächste 24 Stunden)

TLE

AktuellSource: Space-Track

Epoche: Sep 14, 2026, 01:43 UTC

1 13470U 81053FS  26257.07174091  .00000215  00000-0  33783-3 0  9998
2 13470  82.8166 119.4552 0238841  21.8078 131.0785 13.35330087154599

Verfolge COSMOS 1275 DEB in Echtzeit mit AllMySat

Download on the App Store